Location: Chorzów
(50.2975°N, 18.9546°E)
Time: 18:43:43
(UTC+01:00)

Envisat - Visible Passes

Search period start: 13 November 2019 00:00
Search period end: 23 November 2019 00:00
Orbit: 764 x 766 km, 98.1° (Epoch: 13 November)

Date Brightness Start Highest point End Pass type
(mag) Time Alt. Az. Time Alt. Az. Time Alt. Az.
13 Nov 5.6 05:43:11 10° NE 05:47:20 24° E 05:51:27 10° SE visible
13 Nov 3.2 17:02:04 10° SE 17:06:58 50° ENE 17:11:53 10° N visible
13 Nov 5.1 18:42:01 10° SSW 18:46:15 26° W 18:50:31 10° NW visible
14 Nov 6.3 05:08:05 10° ENE 05:10:04 12° E 05:12:04 10° ESE visible
14 Nov 3.8 18:04:18 10° S 18:09:14 51° W 18:14:13 10° NNW visible
15 Nov 4.7 06:08:16 10° NNE 06:13:03 39° E 06:17:48 10° SSE visible
15 Nov 2.9 17:27:19 10° SSE 17:32:23 81° ENE 17:37:31 10° NNW visible
15 Nov 5.8 19:08:56 10° SW 19:12:04 16° W 19:15:12 10° NW visible
16 Nov 5.9 05:32:13 10° NE 05:35:56 20° E 05:39:39 10° SE visible
16 Nov 3.4 16:51:00 10° SE 16:55:45 42° ENE 17:00:31 10° N visible
16 Nov 4.8 18:30:22 10° SSW 18:34:53 32° W 18:39:26 10° NNW visible
17 Nov 3.4 17:52:53 10° S 17:57:54 63° WSW 18:02:59 10° NNW visible
18 Nov 5.0 05:57:08 10° NNE 06:01:42 32° E 06:06:13 10° SSE visible
18 Nov 2.9 17:16:07 10° SSE 17:21:09 67° ENE 17:26:12 10° N visible
18 Nov 5.5 18:56:58 10° SW 19:00:39 20° W 19:04:21 10° NW visible
19 Nov 6.0 05:21:21 10° NE 05:24:31 16° E 05:27:41 10° SE visible
19 Nov 3.6 16:40:00 10° SE 16:44:33 35° ENE 16:49:08 10° N visible
19 Nov 4.4 18:18:48 10° SSW 18:23:32 39° W 18:28:18 10° NNW visible
20 Nov 4.0 06:22:22 10° NNE 06:27:21 52° E 06:32:18 10° S visible
20 Nov 3.1 17:41:32 10° S 17:46:37 78° WSW 17:51:44 10° NNW visible
20 Nov 6.1 19:24:35 10° WSW 19:26:30 12° W 19:28:26 10° WNW visible
21 Nov 5.4 05:46:03 10° NE 05:50:20 26° E 05:54:35 10° SSE visible
21 Nov 3.1 17:04:57 10° SE 17:09:54 54° ENE 17:14:52 10° N visible
21 Nov 5.2 18:45:10 10° SW 18:49:15 24° W 18:53:23 10° NW visible
22 Nov 6.1 05:10:41 10° ENE 05:13:06 13° E 05:15:29 10° ESE visible
22 Nov 3.8 16:29:02 10° ESE 16:33:22 29° ENE 16:37:43 10° N visible
22 Nov 4.0 18:07:18 10° S 18:12:12 47° W 18:17:08 10° NNW visible
